Flag for Vietnam Weather past 2 weeks in Da Nang, Vietnam

Now
84 °F

Passing clouds.


Feels Like: 91 °F
Forecast: 75 / 90 °F
Wind: 7 mph from Northeast

Location: Da Nang Airport

Current Time: Oct 1, 2014 at 7:36:53 PM

Latest Report: Oct 1, 2014 at 7:00 PM


Visibility: N/A

Pressure: 29.86 "Hg

Humidity: 70%

Dew point: 73 °F

Location of Da NangLocation

Historic Weather in Da Nang — Graph

°F

Da Nang temperature yesterday

Maximum temperature yesterday: 91 °F (at 10:30 AM)
Minimum temperature yesterday: 77 °F (at 2:30 AM)
Average temperature yesterday: 84 °F

Past Weeks' High & Low Weather Summary

 TemperatureHumidityPressure
High99 °F (Sep 20, 11:30 AM)100% (Sep 24, 5:30 AM)29.95 "Hg (Sep 24, 5:30 AM)
Low73 °F (Sep 20, 5:00 PM)44% (Sep 17, 9:30 AM)29.47 "Hg (Sep 16, 6:00 PM)
Average84 °F75%29.82 "Hg
* Reported Sep 16 6:00 PM — Oct 1 6:30 PM, Da Nang, Weather by CustomWeather, © 2014

Note: Actual official high and low records may vary slightly from our data, if they occured in-between our weather recording intervals... More about our weather records

Advertising

Da Nang weather history for previous 24 hours

 ConditionsComfort  
Time TempWeatherWind HumidityBarometerVisibility
6:30 PM
Oct 1
84 °FPassing clouds.8 mph74%29.83 "HgN/A
6:00 PM84 °FPassing clouds.9 mph74%29.83 "HgN/A
5:00 PM86 °FScattered clouds.9 mph70%29.80 "HgN/A
4:30 PM88 °FScattered clouds.10 mph66%29.80 "HgN/A
4:00 PM88 °FScattered clouds.13 mph66%29.80 "HgN/A
3:30 PM90 °FScattered clouds.6 mph59%29.80 "HgN/A
3:00 PM90 °FScattered clouds.8 mph63%29.80 "HgN/A
2:30 PM91 °FScattered clouds.7 mph59%29.80 "HgN/A
2:00 PM90 °FScattered clouds.10 mph63%29.80 "HgN/A
1:30 PM90 °FScattered clouds.10 mph63%29.83 "HgN/A
1:00 PM90 °FScattered clouds.10 mph59%29.83 "HgN/A
12:30 PM90 °FScattered clouds.9 mph63%29.86 "HgN/A
12:00 PM90 °FScattered clouds.9 mph59%29.86 "HgN/A
11:30 AM91 °FScattered clouds.7 mph59%29.89 "HgN/A
11:00 AM90 °FScattered clouds.5 mph59%29.89 "HgN/A
10:30 AM90 °FScattered clouds.2 mph59%29.92 "HgN/A
10:00 AM86 °FScattered clouds.1 mph66%29.92 "HgN/A
9:30 AM90 °FScattered clouds.1 mph59%29.92 "HgN/A
9:00 AM91 °FPassing clouds.1 mph56%29.92 "HgN/A
8:30 AM90 °FPassing clouds.1 mph63%29.92 "HgN/A
8:00 AM88 °FPassing clouds.No wind66%29.92 "HgN/A
7:30 AM84 °FPassing clouds.2 mph74%29.92 "HgN/A
7:00 AM81 °FPassing clouds.3 mph84%29.92 "HgN/A
6:30 AM81 °FPassing clouds.2 mph84%29.89 "HgN/A
6:00 AM77 °FPassing clouds.2 mph89%29.89 "HgN/A
5:30 AM75 °FPassing clouds.2 mph94%29.89 "HgN/A
5:00 AM77 °FPassing clouds.1 mph89%29.86 "HgN/A
4:30 AM77 °FPassing clouds.1 mph94%29.86 "HgN/A
3:30 AM77 °FPassing clouds.1 mph94%29.86 "HgN/A
3:00 AM79 °FPassing clouds.2 mph89%29.86 "HgN/A
2:30 AM81 °FPassing clouds.2 mph84%29.86 "HgN/A
2:00 AM79 °FPassing clouds.No wind89%29.86 "HgN/A
1:30 AM81 °FPassing clouds.2 mph84%29.86 "HgN/A
1:00 AM81 °FPassing clouds.1 mph84%29.86 "HgN/A
12:30 AM81 °FPassing clouds.3 mph84%29.89 "HgN/A
12:00 AM81 °FPassing clouds.3 mph84%29.89 "HgN/A
11:30 PM
Sep 30
81 °FPassing clouds.1 mph84%29.89 "HgN/A
11:00 PM82 °FPassing clouds.1 mph79%29.89 "HgN/A
10:30 PM82 °FPassing clouds.3 mph84%29.89 "HgN/A
10:00 PM82 °FPassing clouds.2 mph79%29.89 "HgN/A
9:30 PM84 °FPassing clouds.2 mph74%29.89 "HgN/A
9:00 PM84 °FPassing clouds.2 mph74%29.89 "HgN/A
8:30 PM84 °FPassing clouds.2 mph74%29.89 "HgN/A
8:00 PM84 °FPassing clouds.3 mph74%29.89 "HgN/A
7:30 PM84 °FPassing clouds.5 mph74%29.86 "HgN/A
7:00 PM84 °FPassing clouds.5 mph74%29.86 "HgN/A
Weather by CustomWeather, © 2014

See weather overviewHow to use our weather pages